Погода Ерофей Павлович

Хотите узнать прогноз погоды Ерофей Павлович? Тогда Вам сюда: Погода Ерофей Павлович

Поиск расширенной информации на нашем сайте:

Полезная информация:

Новости сайта



02.01.2020
Опубликован Долгосрочный прогноз погоды по городам России и ближнего зарубежья на январь 2020 года.
Карты: Прогноз на январь и февраль 2020 года, Сравнение прогнозируемой аномалии приземной температуры воздуха на январь 2020 года по разным моделям.




Погода Ерофей Павлович - сегодня

Время (UTC), дата Ветер
(°,м/с) 
Видим.   Явления Облачность Т
(°С)
Тd
(°С)
f(%) Тe
(°С)
Pmin
(гПа)
dP
(гПа)
Po
(мм)
O2
(г/м3)
Тmin Tmax R s Состояние
почвы
00 24.11.20 310 (СЗ) 20000 м    8/0 средняя, верхняя 
[Ac lent|Ci]
-19.1 -22 78 -19  1024.3  1.5  716  312  -19.5      12  равномерный
сухой снег
100% 
03 24.11.20 тихо ()   20000 м    9/0 средняя 
[Ac trans]
-11.7 -17.2 64 -12  1023.4  1.1  717  303           
06 24.11.20 тихо ()   20000 м    10/6 600 м кучево-дожд., верхняя 
[Cb cap|Cs]
-5.9 -15.6 46 -6  1022.5  0.5  718  297           
09 24.11.20 100 (В) н/о    10/6 600 м кучево-дожд., средняя, верхняя 
[Cb cap|Ac As|Ci]
-10.6 -16.2 63 -10  1025.1  1.3  719  303           
12 24.11.20 тихо ()   н/о    8/0 верхняя 
[Cc]
-14.6 -17.8 77 -15  1027  0.8  719  308    -5.8       
15 24.11.20 300 (СЗ) н/о    10/0 средняя 
[Ac und]
-15.2 -18.2 78 -15  1028.4  1.2  720  309           
18 24.11.20 290 (З) н/о  слаб. снег  10/0 средняя 
[As op]
-12.6 -16.4 73 -13  1028.9  1.1  721  306           
21 24.11.20 тихо ()   н/о  слаб. снег  10/0 средняя 
[As op]
-12.3 -15.6 76 -12  1029.5  0.6  721  306           
00 25.11.20 200 (Ю) 20000 м  {снег}  10/0 средняя 
[Ac As]
-14.5 -17.2 80 -15  1031.7  1.5  723  309  -15.3    0.0  12  равномерный
сухой снег
100% 
03 25.11.20 290 (З) 20000 м    ясно 
-7.7 -16.7 48 -7  1030.5  0.6  723  301           
06 25.11.20 340 (С) 20000 м    3/1 1000 м верхняя 
[Cu hum|Ci fib]
-7.3 -20.3 35 -11  1030.2  -0.2  723  301           
09 25.11.20 320 (СЗ) н/о    ясно 
-10.8 -20.8 44 -13  1031.4  0.3  723  305           
12 25.11.20 320 (СЗ) н/о    ясно 
-12.6 -21.4 48 -13  1032.3  0.3  723  307    -7.1       
15 25.11.20 330 (СЗ) н/о    3/0 верхняя 
[Ci]
-17.8 -23.9 59 -18  1033.9  0.2  723  313           
18 25.11.20 тихо ()   н/о    6/0 средняя, верхняя 
[Ac lent|Ci]
-19.7 -24.6 65 -20  1035.3  0.8  724  316           
21 25.11.20 130 (ЮВ) н/о    ясно 
-17.8 -23.5 61 -18  1034.8  724  314           
00 26.11.20 010 (С) 20000 м    3/0 верхняя 
[Ci]
-21.1 -25.3 69 -21  1036.4  0.7  725  318  -21.3      12  равномерный
сухой снег
100% 
03 26.11.20 300 (СЗ) 20000 м    4/0 средняя, верхняя 
[Ac lent|Ci fib]
-8.9 -19.5 42 -11  1033.5  0.4  725  303           
06 26.11.20 340 (С) 20000 м    5/0 верхняя 
[Ci fib]
-7.1 -17.8 42 -11  1032.6  -0.4  725  301           
09 26.11.20 270 (З) 1{10}  н/о    3/0 верхняя 
[Ci fib]
-11.4 -19.9 49 -11  1034.8  0.9  725  306           
12 26.11.20 330 (СЗ) н/о    6/0 верхняя 
[Ci fib]
-13 -21.8 48 -17  1036.2  0.9  726  309    -6.5       
15 26.11.20 330 (СЗ) н/о    4/0 верхняя 
[Ci fib]
-15.5 -22.6 54 -18  1036.8  0.1  726  312           
18 26.11.20 340 (С) н/о    ясно 
-23.2 -26.8 72 -24  1039.5  0.5  726  322           
21 26.11.20 030 (СВ) н/о    ясно 
-24.2 -27.8 72 -25  1039.6  -0.2  726  323           
00 27.11.20 тихо ()   20000 м    8/0 верхняя 
[Ci fib]
-26.3 -30.2 70 -26  1040.3  726  326  -26.3      12  равномерный
сухой снег
100% 
Время (UTC), дата Ветер
(°,м/с) 
Видим.   Явления Облачность Т
(°С)
Тd
(°С)
f(%) Тe
(°С)
Pmin
(гПа)
dP
(гПа)
Po
(мм)
O2
(г/м3)
Тmin Tmax R s Состояние
почвы

Для получения пояснительной информации подведите курсор к названию столбца.

ПОГОДА Ерофей Павлович - архив

Всё, что Вы хотите узнать о погоде Ерофей Павлович - удобно и подробно!

Выберите нужную дату (начиная с 1 января 2019* года) и нажмите кнопку "Найти".
Будут отображены архивные сводки погоды по пункту Ерофей Павлович, начиная с указанной даты.


Отображать данные в формате CSV (для использования в таблицах Excel)


Внимание! Наш архив погоды предназначен исключительно для личного некоммерческого использования в познавательных целях. Если Вам необходимы официальные справки о состоянии погоды (для производственных, юридических, коммерческих и т.п. целей), обращайтесь в органы Росгидромета.

*Примечание: данная дата относится к архиву по метеостанциям СССР (Россия, СНГ, Балтия).
Архив по метеостанциям Зарубежной Европы и Азии (кроме Китая) хранится 10 дней, по другим регионам земного шара (Китай, Африка, Америка, Австралия, Океания) - 1 день.

Ерофей Павлович - район местоположения метеостанции


Название, широта, долгота, высота метеостанции:
Ерофей Павлович 54°ш. 121.9°д. 522 м над ур. моря [Российская Федерация]

Дополнительная информация

В oтличие oт бoльшинства пoгoдных сайтoв мы публикуем пoдрoбную метеoинфoрмацию в детальнoм прoфессиoнальнoм фoрмате.

Характеристики температуры и влажнoсти вoздуха измеряются на высoте 2 м в тени вдали oт зданий и деревьев.
Скoрoсть ветра измеряется на высoте 10 м (на урoвне рoста челoвека скoрoсть ветра ниже в 1.5-2 раза). Если метеoстанция нахoдится в гoрoде или в лесу, тo скoрoсть ветра занижена на 2-4 м/с пo сравнению с oткрытым местoм. Скoрoсть ветра над акватoриями крупных рек и oзёр, а также на вершинах хoлмoв на 2-5 м/с выше, чем в oбычных услoвиях.
Атмoсфернoе давление в разных тoчках местнoсти мoжет значительнo oтличаться oт давления на метеoстанции, в зависимoсти oт услoвий рельефа (при пoдъёме на 10 м давление пoнижается примернo на 1 мм рт.ст.).